Weather in Bokovo

Russia / Tyumen Oblast     56°48′09″N   70°15′50″E
temp.,
°C
wind,
m/s
gust,
m/s
humid.,
%
clouds,
%
prec.,
mm/h
press.,
hPa
HPBL,
m
9 december, thu
thu923:00−20wsw249911 0.0 104242
02:00−19sw359555 0.0 104270
05:00−18ssw3891100 0.0 1041122
08:00−14ssw51183100 0.0 1040247
11:00−10ssw61394100 0.3 1039381
14:00−8sw61482100 0.4 1037501
17:00−8sw61391100 0.8 1036434
20:00−8sw51183100 0.0 1036318
10 december, fri
fri1023:00−8sw5118364 0.0 1036300
02:00−11sw4108380 0.0 1036186
05:00−11sw4127994 0.0 1035219
08:00−11sw5137539 0.0 1034224
11:00−9ssw5147397 0.0 1033281
14:00−8ssw5147499 0.0 1032309
17:00−8ssw51477100 0.0 1030297
20:00−7ssw61477100 0.0 1028325
11 december, sat
sat1123:00−6sw51478100 0.0 1027378
02:00−6wsw41085100 0.0 1027328
05:00−6w3895100 1.0 1027389
08:00−9wnw3894100 0.0 1028210
11:00−11nw499085 0.0 1029258
14:00−12wnw39906 0.0 1029250
17:00−16wnw37965 0.0 1030105
20:00−16nw38965 0.0 1030121
12 december, sun
sun1223:00−16wnw38979 0.0 1031134
02:00−16nw410965 0.0 1031174
05:00−16nw411945 0.0 1032217
08:00−16nw49955 0.0 1033169
11:00−15wnw49935 0.0 1034211
14:00−13w37925 0.0 1033191
17:00−12w399377 0.0 1032192
20:00−12wsw4992100 0.0 1031202
13 december, mon
mon1323:00−12w3892100 0.0 1030172
02:00−11w389298 0.0 1030201
05:00−13wnw38959 0.0 1030155
08:00−15wnw3796100 0.0 1031138
11:00−12nw3893100 0.0 1031255
14:00−11nw379288 0.0 1031302
17:00−11nw2695100 0.0 1032217
20:00−11wnw239759 0.1 103386